Location: Austin
(30.3000°N, 97.7500°W)
Time: 01:31:38
(UTC-05:00)

FALCON 9 R/B - Pass Details

Date: 15 May 2024
Orbit: 302 x 9693 km, 34.5° (Epoch: 19 May)

Event Time Altitude Azimuth Distance (km) Brightness Sun altitude
Rises 21:49:36 0° 268° (W) 2,630 5.6 -17.9°
Reaches altitude 10° 21:51:04 10° 271° (W) 2,018 5.0 -18.2°
Maximum altitude 21:55:22 69° 355° (N) 1,170 3.0 -18.9°
Drops below altitude 10° 22:09:27 10° 78° (ENE) 6,156 6.2 -21.3°
Sets 22:18:01 0° 81° (E) 8,905 7.1 -22.7°
